Starlink 31812

operational
NORAD ID: 59800 Int'l Des: 2024-093 Owner: SPXS Country: US Constellation: starlink
LEOCIRCULAR

Über Starlink 31812

Beschreibung wird geladen...

Live-Position

3D-Globus wird geladen...

Nächste Überflüge

Höhenverlauf

Altitude vs Time

uPlot chart will show altitude changes over time

Zweizeiliger Elementsatz

1 59800U 24093U 25306.44285184 .00005619 00000-0 21363-3 0 9991
2 59800 43.0008 207.6109 0000760 297.2078 62.8696 15.27566702 83304
Epoch: 2. Nov. 2025 • Age: 21 hours

Aktueller Status

Höhe 482.7 km
Geschwindigkeit 7.63 km/s
Subsatellitenpunkt 17.43°N, 155.24°W
Startdatum 18. Mai 2024
Alter 1.4 years
Typ internet

Technische Details

Klassifizierung Payload
Masse 730.00 kg
Trockenmasse 700.00 kg
Gesamtmasse 730.00 kg
Länge 0.30 m
Durchmesser 4.10 m
Spannweite 29.00 m
Form Box + pan
Hersteller SPXS
Bus-Typ Starlink V2M
Phasenstatus In Orbit
Besitzer/Staat SPXS/US

Große Konstellationen

Loading constellations...